Flag for India Weather past 2 weeks in Pudukkottai, Tamil Nadu, India

Now
79 °F

Passing clouds.


Feels Like: 82 °F
Forecast: 74 / 87 °F
Wind: 2 mph from North

Location: Tiruchchirapalli

Current Time: Oct 21, 2014 at 10:41:33 PM

Latest Report: Oct 21, 2014 at 10:10 PM


Visibility: 3 mi

Pressure: 29.95 "Hg

Humidity: 84%

Dew point: 73 °F

Location of PudukkottaiLocation

Historic Weather in Pudukkottai — Graph

°F

Pudukkottai temperature yesterday

Maximum temperature yesterday: 81 °F (at 2:40 PM)
Minimum temperature yesterday: 75 °F (at 12:10 AM)
Average temperature yesterday: 77 °F

Past Weeks' High & Low Weather Summary

 TemperatureHumidityPressure
High99 °F (Oct 12, 3:10 PM)100% (Oct 17, 9:40 PM)29.98 "Hg (Oct 17, 9:40 PM)
Low75 °F (Oct 17, 9:40 PM)42% (Oct 7, 12:40 PM)29.62 "Hg (Oct 11, 3:40 PM)
Average84 °F75%29.80 "Hg
* Reported Oct 6 8:40 PM — Oct 21 9:10 PM, Pudukkottai, Weather by CustomWeather, © 2014

Note: Actual official high and low records may vary slightly from our data, if they occured in-between our weather recording intervals... More about our weather records

Advertising

Pudukkottai weather history for previous 24 hours

 ConditionsComfort  
Time TempWeatherWind HumidityBarometerVisibility
9:10 PM
Oct 21
79 °FPassing clouds.2 mph84%29.95 "Hg3 mi
8:40 PM79 °FPassing clouds.2 mph84%29.92 "Hg3 mi
7:40 PM79 °FPassing clouds.3 mph84%29.89 "Hg3 mi
7:10 PM81 °FPassing clouds.5 mph79%29.89 "Hg3 mi
6:10 PM82 °FScattered clouds.5 mph79%29.83 "Hg4 mi
5:40 PM84 °FPassing clouds.6 mph74%29.83 "Hg4 mi
5:10 PM84 °FScattered clouds.7 mph74%29.80 "Hg4 mi
4:40 PM84 °FScattered clouds.9 mph74%29.80 "Hg4 mi
4:10 PM86 °FScattered clouds.9 mph70%29.80 "Hg4 mi
3:10 PM86 °FBroken clouds.7 mph70%29.80 "Hg2 mi
2:40 PM84 °FBroken clouds.5 mph74%29.83 "Hg2 mi
2:10 PM84 °FBroken clouds.6 mph74%29.83 "Hg2 mi
1:40 PM82 °FBroken clouds.6 mph79%29.86 "Hg2 mi
1:10 PM82 °FBroken clouds.5 mph84%29.89 "Hg2 mi
12:10 PM79 °FMore clouds than sun.5 mph89%29.92 "Hg2 mi
11:40 AM79 °FDrizzle. More clouds than sun.5 mph89%29.95 "Hg2 mi
11:10 AM77 °FDrizzle. More clouds than sun.3 mph89%29.95 "Hg2 mi
10:40 AM75 °FDrizzle. More clouds than sun.3 mph94%29.95 "Hg2 mi
10:10 AM75 °FDrizzle. More clouds than sun.3 mph94%29.98 "Hg2 mi
9:40 AM75 °FDrizzle. More clouds than sun.3 mph94%29.98 "Hg2 mi
9:10 AM75 °FDrizzle. More clouds than sun.5 mph94%29.95 "Hg2 mi
8:40 AM75 °FMore clouds than sun.6 mph94%29.95 "Hg2 mi
8:10 AM75 °FDrizzle. More clouds than sun.6 mph94%29.95 "Hg2 mi
7:40 AM75 °FDrizzle. More clouds than sun.6 mph94%29.92 "Hg2 mi
7:10 AM75 °FDrizzle. More clouds than sun.7 mph89%29.92 "Hg2 mi
6:40 AM75 °FDrizzle. More clouds than sun.7 mph89%29.89 "Hg2 mi
6:10 AM75 °FDrizzle. Mostly cloudy.12 mph89%29.89 "Hg2 mi
5:40 AM75 °FDrizzle. Mostly cloudy.7 mph89%29.86 "Hg2 mi
4:40 AM75 °FMostly cloudy.7 mph94%29.86 "Hg2 mi
4:10 AM75 °FMostly cloudy.7 mph94%29.86 "Hg2 mi
3:40 AM75 °FMostly cloudy.7 mph94%29.86 "Hg2 mi
3:10 AM75 °FMostly cloudy.12 mph94%29.86 "Hg2 mi
2:40 AM75 °FMostly cloudy.12 mph94%29.83 "Hg2 mi
2:10 AM77 °FMostly cloudy.9 mph94%29.86 "Hg2 mi
1:40 AM77 °FMostly cloudy.12 mph94%29.86 "Hg2 mi
1:10 AM77 °FMostly cloudy.9 mph94%29.86 "Hg2 mi
12:40 AM77 °FMostly cloudy.7 mph94%29.86 "Hg2 mi
12:10 AM77 °FMostly cloudy.7 mph94%29.89 "Hg2 mi
11:40 PM
Oct 20
77 °FMostly cloudy.7 mph94%29.89 "Hg2 mi
11:10 PM77 °FMostly cloudy.7 mph94%29.89 "Hg2 mi
10:40 PM77 °FMostly cloudy.7 mph94%29.89 "Hg2 mi
10:10 PM77 °FMostly cloudy.7 mph94%29.89 "Hg2 mi
Weather by CustomWeather, © 2014

See weather overviewHow to use our weather pages